SHIJIAN 6 05B (SJ-6 05B)

导读

SHIJIAN 6 05B(实践六号05B,SJ-6 05B)是中国于2021年12月10日在酒泉卫星发射中心,由长征四号乙运载火箭发射入轨,属于实践六号05组卫星,本次发射是长征系列运载火箭第400次飞行。该卫星主要承担空间环境探测任务,并开展空间领域相关新技术的试验验证工作,为后续航天技术应用积累关键数据。

Basic Information
目录编号:
49962
目录名称:
SHIJIAN 6 05B (SJ-6 05B)
国际标识:
2021-122B
轨道中心:
EARTH
卫星名称:
SHIJIAN 6 05B (SJ-6 05B)
卫星全名:
--
卫星状态:
在轨 (已飞行1647 天)
发射日期:
2021-12-10 UTC
国别 :
中国 (CN)
星等 :
--
Orbit Information
数据来源 国际轨道数据
星历时间: 2026-06-15T01:31:37+0800
6小时前
查看轨道信息
半长轴: 6908.514km
偏心率: 0.0003111
轨道倾角: 97.378°
近地点辐角 73.854°
升交点赤经 146.442°
平近点角 286.304°
近地点: 528.227km
远地点: 532.527km
周期: 95.244分钟
每日圈数: 15.119098
Detailed Information
使用方式:
暂无
2D Orbit Map
3D Orbit Map
Orbit Altitude Analysis Chart
Orbit Inclination Analysis Chart
Orbit Comprehensive Analysis Chart
View Comprehensive Chart